STARLINK-31933 (59874 NORAD) Tracking and Keplerian Element Data

This shows tracking and keplerian element data for the satellite.

Feedback or suggestion? Click here.




ElementValue
Catalog59874
NameSTARLINK-31933
Epoch Orbit294
Epoch Day160.16667824
Epoch Year2024
RAAN327.9865
Inclination43.0017
Eccentricity0.0001871
Argument of Perigee231.3261
Mean Anonmoly254.7294
Mean Motion15.73475571
Decay Rate-0.01546708
L11 59874U 24098S 24160.16667824 -.01546708 00000+0 -12056-1 0 9996
L22 59874 43.0017 327.9865 0001871 231.3261 254.7294 15.73475571 2948



Live tracking and technical data element details for STARLINK-31933 (NORAD 59874). STARLINK-31933 can be tracked NOW for your location showing map with azimuth and elevation plus other details from your city location.







IsCatalogInMostPopularTable: catalog: 59874, numindb: 5
Update: records affected: 1



GetName: 59874 STARLINK-31933

Hit Count: updated at: Tue, 16 Jul 2024 02:18:23 GMT